Location: Bathsheba
(13.2167°N, 59.5167°W)
Time: 22:55:46
(UTC+00:00)

Cosmos 1513 Rocket - Pass Details

Date: 18 September 2020
Orbit: 939 x 1009 km, 82.9° (Epoch: 20 October)

Event Time Altitude Azimuth Distance (km) Brightness Sun altitude
Rises 22:52:49 0° 176° (S) 3,723 7.5 -14.5°
Reaches altitude 10° 22:55:23 10° 174° (S) 2,768 6.8 -15.1°
Maximum altitude 23:01:41 66° 92° (E) 1,076 4.5 -16.6°
Drops below altitude 10° 23:07:53 10° 12° (NNE) 2,729 6.8 -18.1°
Sets 23:10:23 0° 9° (N) 3,667 7.5 -18.7°
